Clinton, MO

5:58 AM CDT on March 27, 2017 (GMT -0500)
Clinton Memorial

Weather History for KGLY - December, 2013

Change the Weather History Date:

Thursday, December 19, 2013

  Actual Average (KSZL) Record (KSZL)
Temperature  
Mean Temperature 54 °F -  
Max Temperature 59 °F 37 °F 60 °F (1997)
Min Temperature 48 °F 20 °F 1 °F (1996)
Degree Days  
Heating Degree Days 12    
Growing Degree Days 4 (Base 50)    
Moisture  
Dew Point 47 °F    
Average Humidity 75    
Maximum Humidity 88    
Minimum Humidity 58    
Precipitation  
Precipitation 0.00 in - - ()
Sea Level Pressure  
Sea Level Pressure 29.78 in    
Wind  
Wind Speed 9 mph (South)    
Max Wind Speed 13 mph    
Max Gust Speed 17 mph    
Visibility 10 miles    
Events      
Averages and records for this station are not official NWS values.
T = Trace of Precipitation, MM = Missing Value Source: NWS Daily Summary

Daily Weather History Graph

Daily Weather History Graph

Search for Another Location

Airport or City:

Trip Planner

Search our weather history database for the weather conditions in past years. The results will help you decide how hot, cold, wet, or windy it might be!

Date:

Astronomy

Dec. 19, 2013 Rise Set
Actual Time 7:27 AM CST 4:56 PM CST
Civil Twilight 6:57 AM CST 5:26 PM CST
Nautical Twilight 6:24 AM CST 5:59 PM CST
Astronomical Twilight 5:52 AM CST 6:32 PM CST
Moon 7:21 PM CST (12/19) 8:47 AM CST (12/19)
Length of Visible Light 10h 29m
Length of Day
9h 29m
Waning Gibbous, 95% of the Moon is Illuminated
Dec 19
Waning Gibbous
Dec 25
Last Quarter
Jan 1
New
Jan 7
First Quarter
Jan 15
Full

Hourly Weather History & Observations

Time (CST) Temp. Dew Point Humidity Pressure Visibility Wind Dir Wind Speed Gust Speed Precip Events Conditions
12:15 AM 50.0 °F 37.4 °F 62% 29.87 in 10.0 mi South 10.4 mph - N/A   Clear
12:35 AM 51.8 °F 37.4 °F 58% 29.86 in 10.0 mi South 11.5 mph 17.3 mph N/A   Clear
12:55 AM 51.8 °F 37.4 °F 58% 29.86 in 10.0 mi South 10.4 mph - N/A   Clear
1:15 AM 51.8 °F 37.4 °F 58% 29.85 in 10.0 mi South 10.4 mph - N/A   Clear
1:35 AM 51.8 °F 37.4 °F 58% 29.85 in 10.0 mi South 9.2 mph - N/A   Clear
1:55 AM 51.8 °F 39.2 °F 62% 29.84 in 10.0 mi SSW 11.5 mph - N/A   Clear
2:15 AM 51.8 °F 39.2 °F 62% 29.84 in 10.0 mi South 10.4 mph 16.1 mph N/A   Clear
2:35 AM 51.8 °F 39.2 °F 62% 29.84 in 10.0 mi South 10.4 mph - N/A   Clear
2:55 AM 51.8 °F 39.2 °F 62% 29.84 in 10.0 mi South 9.2 mph - N/A   Clear
3:15 AM 51.8 °F 39.2 °F 62% 29.83 in 10.0 mi South 8.1 mph - N/A   Clear
3:35 AM 51.8 °F 39.2 °F 62% 29.83 in 10.0 mi South 8.1 mph - N/A   Clear
3:55 AM 50.0 °F 39.2 °F 66% 29.82 in 10.0 mi South 6.9 mph - N/A   Clear
4:15 AM 48.2 °F 39.2 °F 71% 29.82 in 10.0 mi South 8.1 mph - N/A   Clear
4:35 AM 48.2 °F 39.2 °F 71% 29.82 in 10.0 mi South 8.1 mph - N/A   Clear
4:55 AM 48.2 °F 39.2 °F 71% 29.82 in 10.0 mi South 5.8 mph - N/A   Clear
5:15 AM 48.2 °F 39.2 °F 71% 29.82 in 10.0 mi South 4.6 mph - N/A   Clear
5:35 AM 48.2 °F 39.2 °F 71% 29.81 in 10.0 mi South 8.1 mph - N/A   Clear
5:55 AM 50.0 °F 41.0 °F 71% 29.81 in 10.0 mi South 8.1 mph - N/A   Clear
6:15 AM 51.8 °F 42.8 °F 71% 29.80 in 10.0 mi South 8.1 mph - N/A   Clear
6:35 AM 51.8 °F 42.8 °F 71% 29.81 in 10.0 mi South 8.1 mph - N/A   Clear
6:55 AM 51.8 °F 42.8 °F 71% 29.81 in 10.0 mi South 6.9 mph - N/A   Clear
7:15 AM 51.8 °F 42.8 °F 71% 29.81 in 10.0 mi South 8.1 mph - N/A   Clear
7:35 AM 51.8 °F 42.8 °F 71% 29.81 in 10.0 mi South 9.2 mph - N/A   Clear
7:55 AM 51.8 °F 44.6 °F 76% 29.82 in 10.0 mi South 8.1 mph - N/A   Clear
8:15 AM 53.6 °F 44.6 °F 72% 29.82 in 10.0 mi South 8.1 mph - N/A   Clear
8:35 AM 53.6 °F 44.6 °F 72% 29.82 in 10.0 mi South 11.5 mph - N/A   Clear
8:55 AM 53.6 °F 44.6 °F 72% 29.82 in 10.0 mi South 9.2 mph - N/A   Clear
9:15 AM 55.4 °F 46.4 °F 72% 29.83 in 10.0 mi South 9.2 mph - N/A   Clear
9:35 AM 55.4 °F 46.4 °F 72% 29.83 in 10.0 mi South 9.2 mph - N/A   Scattered Clouds
9:55 AM 55.4 °F 46.4 °F 72% 29.84 in 10.0 mi South 12.7 mph 17.3 mph N/A   Overcast
10:15 AM 55.4 °F 46.4 °F 72% 29.85 in 10.0 mi South 12.7 mph 17.3 mph N/A   Overcast
10:35 AM 55.4 °F 48.2 °F 77% 29.85 in 10.0 mi South 11.5 mph - N/A   Overcast
10:55 AM 57.2 °F 48.2 °F 72% 29.84 in 10.0 mi South 11.5 mph - N/A   Overcast
11:15 AM 57.2 °F 48.2 °F 72% 29.83 in 10.0 mi South 9.2 mph - N/A   Overcast
11:35 AM 57.2 °F 48.2 °F 72% 29.83 in 10.0 mi South 10.4 mph - N/A   Overcast
11:55 AM 57.2 °F 48.2 °F 72% 29.81 in 10.0 mi South 11.5 mph 16.1 mph N/A   Overcast
12:15 PM 57.2 °F 50.0 °F 77% 29.80 in 10.0 mi South 11.5 mph - N/A   Overcast
12:35 PM 57.2 °F 50.0 °F 77% 29.78 in 10.0 mi South 11.5 mph - N/A   Overcast
12:55 PM 57.2 °F 50.0 °F 77% 29.77 in 10.0 mi South 10.4 mph - N/A   Overcast
1:15 PM 57.2 °F 50.0 °F 77% 29.75 in 10.0 mi South 12.7 mph - N/A   Overcast
1:35 PM 57.2 °F 50.0 °F 77% 29.74 in 10.0 mi South 11.5 mph 16.1 mph N/A   Overcast
1:55 PM 57.2 °F 50.0 °F 77% 29.73 in 10.0 mi South 9.2 mph - N/A   Overcast
2:15 PM 57.2 °F 50.0 °F 77% 29.72 in 10.0 mi South 11.5 mph - N/A   Overcast
2:35 PM 57.2 °F 51.8 °F 82% 29.72 in 10.0 mi South 11.5 mph - N/A   Overcast
2:55 PM 59.0 °F 51.8 °F 77% 29.72 in 10.0 mi South 11.5 mph - N/A   Overcast
3:15 PM 57.2 °F 51.8 °F 82% 29.71 in 10.0 mi South 11.5 mph - N/A   Overcast
3:35 PM 59.0 °F 51.8 °F 77% 29.71 in 10.0 mi South 9.2 mph - N/A   Overcast
3:55 PM 57.2 °F 51.8 °F 82% 29.71 in 10.0 mi South 8.1 mph - N/A   Overcast
4:15 PM 57.2 °F 51.8 °F 82% 29.71 in 10.0 mi South 8.1 mph - N/A   Overcast
4:35 PM 57.2 °F 51.8 °F 82% 29.70 in 10.0 mi South 8.1 mph - N/A   Overcast
4:55 PM 57.2 °F 51.8 °F 82% 29.71 in 10.0 mi South 8.1 mph - N/A   Overcast
5:15 PM 57.2 °F 51.8 °F 82% 29.71 in 10.0 mi South 8.1 mph - N/A   Overcast
5:35 PM 57.2 °F 51.8 °F 82% 29.71 in 10.0 mi South 8.1 mph - N/A   Overcast
5:55 PM 57.2 °F 51.8 °F 82% 29.71 in 10.0 mi South 8.1 mph - N/A   Overcast
6:15 PM 57.2 °F 51.8 °F 82% 29.72 in 10.0 mi South 6.9 mph - N/A   Overcast
6:35 PM 57.2 °F 51.8 °F 82% 29.71 in 10.0 mi South 6.9 mph - N/A   Overcast
6:55 PM 57.2 °F 51.8 °F 82% 29.71 in 10.0 mi South 6.9 mph - N/A   Overcast
7:15 PM 57.2 °F 51.8 °F 82% 29.71 in 10.0 mi South 6.9 mph - N/A   Overcast
7:35 PM 55.4 °F 50.0 °F 82% 29.71 in 10.0 mi SE 4.6 mph - N/A   Overcast
7:55 PM 55.4 °F 50.0 °F 82% 29.71 in 10.0 mi SSE 5.8 mph - N/A   Mostly Cloudy
8:15 PM 55.4 °F 50.0 °F 82% 29.71 in 10.0 mi SSE 3.5 mph - N/A   Overcast
8:35 PM 55.4 °F 50.0 °F 82% 29.71 in 10.0 mi SSE 6.9 mph - N/A   Overcast
8:55 PM 55.4 °F 50.0 °F 82% 29.72 in 10.0 mi SSE 3.5 mph - N/A   Overcast
9:15 PM 55.4 °F 50.0 °F 82% 29.72 in 10.0 mi SSE 5.8 mph - N/A   Mostly Cloudy
9:35 PM 55.4 °F 50.0 °F 82% 29.72 in 10.0 mi SSE 5.8 mph - N/A   Mostly Cloudy
9:55 PM 55.4 °F 50.0 °F 82% 29.72 in 10.0 mi SSE 4.6 mph - N/A   Overcast
10:15 PM 55.4 °F 50.0 °F 82% 29.72 in 10.0 mi South 5.8 mph - N/A   Overcast
10:35 PM 55.4 °F 50.0 °F 82% 29.72 in 10.0 mi SSE 5.8 mph - N/A   Overcast
10:55 PM 55.4 °F 50.0 °F 82% 29.71 in 10.0 mi SSE 6.9 mph - N/A   Overcast
11:15 PM 55.4 °F 51.8 °F 88% 29.71 in 10.0 mi South 8.1 mph - N/A   Mostly Cloudy
11:35 PM 55.4 °F 51.8 °F 88% 29.71 in 10.0 mi South 9.2 mph - N/A   Overcast
11:55 PM 55.4 °F 51.8 °F 88% 29.70 in 10.0 mi South 8.1 mph - N/A   Overcast